Location: Unspecified
(0.0000°N, 0.0000°E)
Time: 16:58:13
(UTC+00:00)

Explorer 7 - All Passes

Search period start: 25 July 2024 00:00
Search period end: 04 August 2024 00:00
Orbit: 465 x 618 km, 50.3° (Epoch: 24 July)

Date Brightness Start Highest point End Pass type
(mag) Time Alt. Az. Time Alt. Az. Time Alt. Az.
25 Jul - 06:04:09 10° NNE 06:06:32 15° NE 06:08:52 10° E daylight
25 Jul - 07:42:32 10° WNW 07:46:02 28° SW 07:49:23 10° S daylight
25 Jul - 17:59:03 10° S 18:01:51 18° SE 18:04:44 10° E daylight
25 Jul - 19:37:52 10° WSW 19:41:18 25° NW 19:44:51 10° N visible
26 Jul - 05:54:58 10° N 05:58:14 22° NE 06:01:22 10° ESE daylight
26 Jul - 07:34:45 10° W 07:37:39 19° SW 07:40:28 10° S daylight
26 Jul - 17:50:05 10° S 17:53:29 26° SE 17:57:00 10° ENE daylight
26 Jul - 19:30:12 10° W 19:32:58 17° NW 19:35:48 10° N visible
27 Jul - 05:46:07 10° NNW 05:49:53 32° NE 05:53:29 10° ESE daylight
27 Jul - 07:27:25 10° W 07:29:17 13° SW 07:31:06 10° SSW daylight
27 Jul - 17:41:20 10° SSW 17:45:05 39° SE 17:49:00 10° ENE daylight
27 Jul - 19:23:09 10° WNW 19:24:37 12° NW 19:26:08 10° NNW visible
28 Jul - 05:37:25 10° NNW 05:41:30 50° NE 05:45:23 10° SE visible
28 Jul - 17:32:44 10° SSW 17:36:40 61° SE 17:40:46 10° NE daylight
29 Jul - 05:28:52 10° NNW 05:33:05 79° NE 05:37:06 10° SE visible
29 Jul - 17:24:16 10° SW 17:28:13 85° NW 17:32:23 10° NE daylight
30 Jul - 05:20:26 10° NW 05:24:38 67° SW 05:28:38 10° SSE visible
30 Jul - 17:15:56 10° SW 17:19:46 54° NW 17:23:49 10° NNE daylight
31 Jul - 03:35:20 10° NNE 03:36:36 11° NE 03:37:50 10° ENE visible
31 Jul - 05:12:07 10° NW 05:16:10 43° SW 05:20:02 10° SSE visible
31 Jul - 15:30:35 10° SSE 15:31:57 12° SE 15:33:19 10° ESE daylight
31 Jul - 17:07:43 10° WSW 17:11:19 34° NW 17:15:05 10° NNE daylight
01 Aug - 03:25:25 10° NNE 03:28:10 16° NE 03:30:50 10° E visible
01 Aug - 05:03:58 10° WNW 05:07:39 29° SW 05:11:14 10° S visible
01 Aug - 15:20:53 10° S 15:23:27 17° SE 15:26:06 10° E daylight
01 Aug - 16:59:42 10° WSW 17:02:51 23° NW 17:06:08 10° N daylight
02 Aug - 03:16:11 10° N 03:19:42 24° NE 03:23:06 10° ESE visible
02 Aug - 04:56:00 10° WNW 04:59:09 20° SW 05:02:11 10° S visible
02 Aug - 15:11:45 10° S 15:14:56 25° SE 15:18:14 10° ENE daylight
02 Aug - 16:51:58 10° W 16:54:23 16° NW 16:56:52 10° NNW daylight
03 Aug - 03:07:12 10° NNW 03:11:12 35° NE 03:15:02 10° ESE night (unlit)
03 Aug - 04:48:26 10° W 04:50:37 14° SW 04:52:46 10° SSW visible
03 Aug - 15:02:51 10° SSW 15:06:24 38° SE 15:10:05 10° ENE daylight
03 Aug - 16:45:12 10° WNW 16:45:54 10° NW 16:46:37 10° NW daylight
